[[{"header":{"parameterUnit":"m.s-1","parameterCategory":1,"la1":30.2991,"la2":30.254,"lo1":-89.0895,"lo2":-89.0444,"dy":0.0017,"dx":0.0017,"nx":28,"ny":28,"refTime":"2025-04-01T09:00:00:Z","depth":0,"parameterNumber":2,"parameterNumberName":"U-component_of_WINDS"},"data":[0,0,0,0,0,0,0,0,0,0,0,0,0,0,0,0,0,0,0,0,0,0,0,0,0,0,0,0,0,0,0,0,0,0,0,0,0,0,0,0,0,0,0,0,0,0,0,0,0,0,0,0,0,0,0,0,0,0,-3.7269,-3.7271,0,-3.7384,-3.7385,-3.7387,-3.7415,-3.7415,-3.7414,-3.7413,-3.753,-3.7534,-3.7538,0,0,0,0,0,0,0,0,0,0,0,0,0,-3.7075,-3.7079,-3.7269,-3.7271,-3.7272,-3.7384,-3.7385,-3.7387,-3.7416,-3.7415,-3.7414,-3.7413,-3.7529,-3.7533,-3.7538,0,0,0,0,0,0,0,0,0,0,0,0,0,-3.7172,-3.708,-3.7269,-3.73,-3.7304,-3.7384,-3.7385,-3.7387,-3.7416,-3.7415,-3.7414,-3.7413,-3.7527,-3.7533,-3.7539,-3.7595,0,0,-3.7556,-3.7558,0,0,0,0,0,0,0,0,-3.7166,-3.7179,-3.7294,-3.7298,-3.7302,-3.7384,-3.736,-3.7457,-3.7416,-3.7373,-3.7413,-3.7412,-3.7483,-3.7492,-3.7516,-3.7601,-3.7606,-3.7556,-3.756,-3.7562,-3.7564,0,0,0,0,0,0,0,-3.716,-3.7174,-3.7315,-3.7296,-3.7301,-3.7308,-3.7321,-3.7378,-3.7433,-3.7377,-3.7379,-3.7393,-3.7485,-3.751,-3.7519,-3.7608,-3.7556,-3.7561,-3.7565,-3.7567,-3.7746,-3.7747,0,0,0,0,0,0,-3.7148,-3.7168,-3.7311,-3.7318,-3.723,-3.7313,-3.7327,-3.7359,-3.7432,-3.7442,-3.7393,-3.7393,-3.7501,-3.7512,-3.7523,-3.7594,-3.7562,-3.7568,-3.7571,-3.7744,-3.7746,-3.7747,0,0,0,0,0,0,-3.7143,-3.716,-3.7306,-3.7244,-3.7263,-3.7317,-3.7353,-3.7362,-3.7387,-3.7444,-3.7454,-3.7409,-3.7501,-3.7515,-3.7577,-3.7598,-3.757,-3.7575,-3.7743,-3.7745,-3.7747,-3.7736,0,0,0,0,0,0,-3.7138,-3.7158,-3.718,-3.7244,-3.7266,-3.7359,-3.7355,-3.7365,-3.7397,-3.7399,-3.7462,-3.7472,-3.7501,-3.7569,-3.7583,-3.7606,-3.758,-3.7741,-3.7744,-3.7746,-3.7735,-3.7738,-3.774,0,0,0,0,0,-3.7131,-3.7172,-3.7181,-3.7198,-3.7295,-3.736,-3.7372,-3.7405,-3.7399,-3.7421,-3.7458,-3.747,-3.7594,-3.7575,-3.7591,-3.7616,-3.774,-3.7743,-3.7746,-3.7734,-3.7737,-3.774,0,0,0,0,0,0,-3.7109,-3.7181,-3.7192,-3.7256,-3.7301,-3.7364,-3.7394,-3.7408,-3.7456,-3.7455,-3.7494,-3.7508,-3.7568,-3.7599,-3.7576,-3.7675,-3.7667,-3.7673,-3.7652,-3.7656,-3.7658,-3.7649,-3.7584,0,0,0,0,0,-3.7112,-3.7158,-3.7219,-3.727,-3.7292,-3.7339,-3.7369,-3.739,-3.7439,-3.7458,-3.75,-3.7547,-3.7596,-3.7628,-3.7677,-3.774,-3.7754,-3.7766,-3.7768,-3.777,-3.7774,-3.781,-3.7815,-3.7757,-3.7757,-3.7757,0,0,-3.7118,-3.7163,-3.719,-3.7267,-3.7305,-3.7352,-3.7355,-3.7405,-3.744,-3.7466,-3.7527,-3.7559,-3.7614,-3.7677,-3.7707,-3.7705,-3.7794,-3.7774,-3.7775,-3.7778,-3.7813,-3.7819,-3.7824,-3.7759,-3.7759,-3.7759,0,0,-3.7152,-3.7192,-3.7238,-3.7276,-3.7334,-3.7365,-3.7376,-3.7438,-3.746,-3.7523,-3.7543,-3.7586,-3.7671,-3.7709,-3.774,-3.7791,-3.7803,-3.7806,-3.7818,-3.7852,-3.7857,-3.7861,-3.7878,-3.7884,-3.7811,-3.7811,-3.7811,0,-3.7152,-3.7224,-3.726,-3.7309,-3.7342,-3.7368,-3.7416,-3.7451,-3.7522,-3.7544,-3.7541,-3.7648,-3.7687,-3.7759,-3.7772,-3.7796,-3.781,-3.7798,-3.7853,-3.7858,-3.7862,-3.7879,-3.7886,-3.781,-3.781,-3.781,-3.781,0,-3.7221,-3.7271,-3.7301,-3.7369,-3.7406,-3.7454,-3.7497,-3.753,-3.7549,-3.758,-3.7644,-3.7692,-3.7751,-3.777,-3.7789,-3.7845,-3.7842,-3.7846,-3.7838,-3.7867,-3.7884,-3.789,-3.781,-3.781,-3.781,-3.781,0,0,-3.7243,-3.7331,-3.7341,-3.7372,-3.7439,-3.7478,-3.7528,-3.7586,-3.7613,-3.7662,-3.7704,-3.7776,-3.778,-3.7815,-3.7839,-3.7869,-3.7905,-3.7869,-3.7871,-3.7873,-3.797,-3.7965,-3.7972,-3.7915,-3.7916,-3.7917,-3.7964,0,-3.7285,-3.7373,-3.7408,-3.748,-3.7526,-3.7553,-3.7596,-3.7642,-3.7673,-3.7717,-3.7752,-3.7802,-3.7804,-3.7825,-3.7857,-3.7894,-3.7925,-3.7892,-3.7954,-3.7955,-3.7937,-3.7981,-3.7976,-3.8018,-3.7971,-3.7972,-3.7973,0,-3.7345,-3.7394,-3.7471,-3.7532,-3.7553,-3.7591,-3.7647,-3.7689,-3.7742,-3.7762,-3.7802,-3.7824,-3.7877,-3.7868,-3.7942,-3.7918,-3.7946,-3.7969,-3.7971,-3.7976,-3.7964,-3.7986,-3.8032,-3.8038,-3.7984,-3.7983,-3.7982,0,-3.7351,-3.7437,-3.7494,-3.752,-3.7593,-3.7619,-3.7651,-3.7703,-3.7736,-3.7785,-3.7807,-3.7862,-3.7892,-3.7935,-3.7971,-3.7961,-3.8041,-3.8035,-3.8059,-3.8058,-3.8073,-3.8071,-3.8123,-3.8094,-3.8094,-3.8094,-3.8093,0,-3.7393,-3.7439,-3.7498,-3.7533,-3.7585,-3.7625,-3.7676,-3.7709,-3.7755,-3.7797,-3.7824,-3.7863,-3.791,-3.7955,-3.7985,-3.8041,-3.8054,-3.8072,-3.8079,-3.8069,-3.8066,-3.8086,-3.8084,-3.8095,-3.8095,-3.8095,-3.8094,0,-3.7409,-3.745,-3.7514,-3.7579,-3.7596,-3.7631,-3.7687,-3.7722,-3.7755,-3.7808,-3.7823,-3.7875,-3.7929,-3.7971,-3.8042,-3.8062,-3.8121,-3.8129,-3.8103,-3.8106,-3.8127,-3.8124,-3.8192,-3.8203,-3.8167,-3.8168,-3.8168,0,-3.7432,-3.7468,-3.7536,-3.7566,-3.7598,-3.7646,-3.768,-3.7721,-3.7755,-3.7818,-3.7846,-3.7902,-3.795,-3.8036,-3.808,-3.8134,-3.8143,-3.8163,-3.8151,-3.814,-3.8142,-3.8139,-3.8142,-3.8164,-3.8164,-3.8164,-3.8165,0,-3.7468,-3.7487,-3.7535,-3.759,-3.763,-3.7676,-3.7722,-3.7745,-3.7795,-3.7832,-3.7888,-3.7925,-3.7998,-3.8053,-3.8113,-3.8145,-3.8163,-3.8168,-3.8177,-3.8165,-3.8148,-3.8157,-3.8105,-3.8166,-3.8166,-3.8166,-3.8166,-3.8166,-3.7487,-3.752,-3.7574,-3.7626,-3.7665,-3.7708,-3.7744,-3.7782,-3.783,-3.7892,-3.7914,-3.7972,-3.8024,-3.8106,-3.814,-3.8185,-3.8186,-3.8198,-3.8201,-3.8203,-3.8201,-3.8143,-3.8197,-3.8197,-3.8197,-3.8197,-3.8197,0,-3.7524,-3.756,-3.7608,-3.7672,-3.7713,-3.7727,-3.7779,-3.7813,-3.7863,-3.7911,-3.7957,-3.8022,-3.8077,-3.8126,-3.8183,-3.821,-3.822,-3.8223,-3.8221,-3.8228,-3.8198,-3.8185,-3.8215,-3.8215,-3.8215,-3.8215,-3.8215,-3.8215,-3.7547,-3.7604,-3.763,-3.7706,-3.7742,-3.7799,-3.7827,-3.7867,-3.7905,-3.7976,-3.8021,-3.8053,-3.8102,-3.8163,-3.8213,-3.8227,-3.8246,-3.8247,-3.8262,-3.8233,-3.823,-3.8228,-3.8215,-3.8251,-3.8251,-3.8288,-3.8289,-3.8289]},{"header":{"parameterUnit":"m.s-1","parameterCategory":1,"la1":30.2991,"la2":30.254,"lo1":-89.0895,"lo2":-89.0444,"dy":0.0017,"dx":0.0017,"nx":28,"ny":28,"refTime":"2025-04-01T09:00:00:Z","depth":0,"parameterNumber":3,"parameterNumberName":"V-component_of_WINDS"},"data":[0,0,0,0,0,0,0,0,0,0,0,0,0,0,0,0,0,0,0,0,0,0,0,0,0,0,0,0,0,0,0,0,0,0,0,0,0,0,0,0,0,0,0,0,0,0,0,0,0,0,0,0,0,0,0,0,0,0,5.1138,5.1139,0,5.1211,5.1212,5.1212,5.122,5.1219,5.1218,5.1218,5.1289,5.1291,5.1294,0,0,0,0,0,0,0,0,0,0,0,0,0,5.1003,5.1005,5.1138,5.1139,5.1139,5.1211,5.1212,5.1213,5.122,5.1219,5.1218,5.1217,5.1288,5.1291,5.1294,0,0,0,0,0,0,0,0,0,0,0,0,0,5.1067,5.1006,5.1137,5.1152,5.1154,5.121,5.1212,5.1213,5.122,5.1219,5.1218,5.1217,5.1287,5.1291,5.1294,5.1341,0,0,5.1306,5.1308,0,0,0,0,0,0,0,0,5.1063,5.1072,5.1149,5.1151,5.1153,5.1205,5.119,5.1256,5.122,5.1195,5.1218,5.1216,5.1262,5.1267,5.1283,5.1344,5.1347,5.1307,5.1309,5.1311,5.1312,0,0,0,0,0,0,0,5.1059,5.1069,5.1166,5.115,5.1153,5.1154,5.1162,5.1203,5.1233,5.1197,5.1198,5.1206,5.1262,5.128,5.1285,5.1348,5.1306,5.131,5.1312,5.1314,5.1453,5.1454,0,0,0,0,0,0,5.1052,5.1065,5.1164,5.1169,5.1105,5.1157,5.1166,5.1189,5.1233,5.1239,5.1207,5.1206,5.1274,5.1281,5.1288,5.1347,5.1311,5.1314,5.1316,5.1452,5.1453,5.1455,0,0,0,0,0,0,5.1049,5.1061,5.1161,5.1117,5.113,5.1161,5.1187,5.1192,5.1209,5.1241,5.1246,5.1219,5.1273,5.1282,5.1328,5.1349,5.1316,5.1319,5.145,5.1452,5.1454,5.1464,0,0,0,0,0,0,5.1045,5.106,5.1078,5.1118,5.1132,5.1201,5.1188,5.1194,5.1216,5.1216,5.1254,5.1259,5.1273,5.1323,5.1332,5.1354,5.1322,5.1448,5.1451,5.1453,5.1462,5.1466,5.147,0,0,0,0,0,5.1041,5.1076,5.1079,5.1091,5.1156,5.1202,5.1211,5.1227,5.1217,5.1236,5.1257,5.1258,5.1345,5.1327,5.1338,5.1361,5.1447,5.145,5.1453,5.146,5.1465,5.147,0,0,0,0,0,0,5.1036,5.1082,5.1085,5.1135,5.1165,5.1203,5.1227,5.1232,5.1264,5.1262,5.128,5.1289,5.1335,5.1352,5.1331,5.141,5.1395,5.1401,5.1397,5.1402,5.1406,5.1401,5.1326,0,0,0,0,0,5.1042,5.1076,5.1114,5.1154,5.1169,5.1196,5.1216,5.1227,5.1258,5.1271,5.1295,5.1324,5.1359,5.1381,5.1414,5.1465,5.1474,5.1486,5.149,5.1493,5.1498,5.1528,5.1535,5.1465,5.1465,5.1465,0,0,5.1052,5.1081,5.1102,5.1154,5.1179,5.1214,5.1206,5.1243,5.127,5.1276,5.1322,5.1341,5.1375,5.1424,5.1447,5.144,5.1519,5.1497,5.1499,5.1502,5.1532,5.1539,5.1544,5.1467,5.1467,5.1466,0,0,5.109,5.1115,5.1153,5.1178,5.1216,5.1234,5.1243,5.1282,5.1295,5.1342,5.1348,5.138,5.1438,5.1463,5.1484,5.1534,5.1536,5.1544,5.1565,5.1594,5.16,5.1605,5.1625,5.1631,5.1549,5.1549,5.1549,0,5.1098,5.1152,5.1171,5.121,5.1233,5.1242,5.1281,5.1304,5.135,5.1366,5.1359,5.1435,5.1458,5.1514,5.1527,5.1543,5.1554,5.154,5.1598,5.1603,5.1608,5.1627,5.1634,5.1549,5.1549,5.1549,5.1549,0,5.1161,5.1199,5.1225,5.1273,5.1299,5.1337,5.1361,5.1386,5.1394,5.1413,5.1462,5.1491,5.1531,5.1545,5.1553,5.1603,5.1599,5.1594,5.158,5.1615,5.1633,5.1641,5.1551,5.155,5.155,5.155,0,0,5.1198,5.1257,5.1266,5.1289,5.1333,5.1362,5.1401,5.1443,5.1465,5.1496,5.1531,5.1581,5.1578,5.1602,5.1612,5.1638,5.1679,5.163,5.1632,5.164,5.1739,5.1743,5.1751,5.168,5.1682,5.1683,5.1737,0,5.1242,5.1314,5.1333,5.1393,5.143,5.144,5.1474,5.1505,5.1523,5.1557,5.1577,5.1614,5.1606,5.162,5.1646,5.1668,5.1699,5.1664,5.1713,5.1714,5.1705,5.1761,5.1765,5.1814,5.1744,5.1745,5.1746,0,5.1303,5.1339,5.1404,5.1446,5.1462,5.1493,5.1534,5.1565,5.1601,5.1613,5.164,5.1649,5.1691,5.1674,5.1733,5.1709,5.173,5.1744,5.1746,5.1752,5.1733,5.177,5.183,5.1838,5.1757,5.1756,5.1755,0,5.1326,5.139,5.1438,5.1457,5.1507,5.1528,5.155,5.1584,5.1609,5.1644,5.1661,5.17,5.1722,5.1752,5.1771,5.1757,5.1829,5.1813,5.1841,5.184,5.1856,5.1855,5.1922,5.1867,5.1867,5.1866,5.1866,0,5.1374,5.1414,5.145,5.1479,5.1525,5.1546,5.159,5.1612,5.1643,5.1677,5.1687,5.1718,5.1742,5.1777,5.1792,5.1839,5.1848,5.186,5.1864,5.186,5.1859,5.1875,5.1872,5.1868,5.1868,5.1868,5.1867,0,5.1407,5.1432,5.1486,5.153,5.1542,5.1573,5.161,5.164,5.166,5.1703,5.1714,5.1745,5.1787,5.181,5.1861,5.1872,5.1925,5.1926,5.1914,5.1916,5.1943,5.1941,5.2024,5.2037,5.1971,5.1972,5.1972,0,5.1437,5.1468,5.1516,5.1541,5.1563,5.1602,5.1628,5.1651,5.1677,5.1722,5.1746,5.1789,5.1825,5.1891,5.1918,5.1958,5.1962,5.1988,5.1967,5.1964,5.1964,5.1963,5.1967,5.1992,5.1992,5.1993,5.1993,0,5.1488,5.15,5.1538,5.1581,5.1613,5.1647,5.1682,5.1701,5.1729,5.1758,5.1803,5.1831,5.1885,5.1928,5.1971,5.1992,5.1998,5.1999,5.2008,5.2005,5.1998,5.2005,5.1926,5.1997,5.1997,5.1997,5.1996,5.1996,5.1522,5.1552,5.1591,5.1634,5.1662,5.1695,5.1725,5.175,5.1788,5.1835,5.1846,5.1893,5.1929,5.1988,5.2011,5.2048,5.2043,5.2055,5.2059,5.2062,5.2064,5.1991,5.2056,5.2056,5.2055,5.2055,5.2055,0,5.1576,5.1602,5.1641,5.169,5.1724,5.1728,5.1766,5.1794,5.1836,5.187,5.1906,5.1958,5.2001,5.2032,5.2075,5.2099,5.2103,5.211,5.2109,5.2114,5.2065,5.2054,5.2106,5.2106,5.2106,5.2106,5.2106,5.2106,5.1608,5.1659,5.1676,5.1741,5.1767,5.1815,5.1837,5.1867,5.1895,5.1953,5.1989,5.201,5.2043,5.209,5.2129,5.2137,5.2153,5.216,5.2169,5.2123,5.2117,5.2112,5.2102,5.2163,5.2163,5.2215,5.2215,5.2216]}]]